GW5398 Weather Reports


time (UTC)temp
C
wind
direction
speed
KPH
gust
KPH
rain 1hr
cm
rain 24hr
cm
rain mn
cm
humidity
%
barometer
mb
20260504081510 16 126 3.2 8.0 0.00 0.00 0.00 78 1009.5
20260504081009 16 91 6.4 8.0 0.00 0.00 0.00 78 1009.5
20260504080510 16 101 4.8 4.8 0.00 0.00 0.00 78 1009.5
20260504050509 11 132 0.0 0.0 0.00 0.00 0.00 91 1010.5
20260504050013 11 132 0.0 0.0 0.00 0.00 0.00 91 1010.5
20260504045510 12 153 0.0 0.0 0.00 0.00 0.00 91 1010.5
20260504045009 12 152 0.0 0.0 0.00 0.00 0.00 91 1010.5
20260504044510 12 159 0.0 1.6 0.00 0.00 0.00 91 1010.5
20260504044009 12 164 0.0 0.0 0.00 0.00 0.00 91 1010.5
20260504043509 11 143 0.0 0.0 0.00 0.00 0.00 92 1010.5
20260504043010 11 142 0.0 0.0 0.00 0.00 0.00 91 1010.5
20260504042511 11 142 0.0 0.0 0.00 0.00 0.00 91 1010.5
20260504042012 11 141 0.0 0.0 0.00 0.00 0.00 91 1010.8
20260504041509 11 149 0.0 0.0 0.00 0.00 0.00 91 1010.8
20260504041010 11 149 0.0 0.0 0.00 0.00 0.00 91 1010.8
20260504040509 11 151 0.0 3.2 0.00 0.00 0.00 90 1010.8
20260504035520 11 173 1.6 1.6 0.00 0.00 0.00 91 1010.8
20260504035010 11 142 0.0 0.0 0.00 0.00 0.00 91 1010.8
20260504034509 11 139 0.0 1.6 0.00 0.00 0.00 91 1010.8
20260504034009 11 97 1.6 4.8 0.00 0.00 0.00 91 1010.8
20260504033509 11 65 3.2 4.8 0.00 0.00 0.00 91 1010.5
20260504033011 12 143 0.0 0.0 0.00 0.00 0.00 91 1010.8
20260504032509 12 146 0.0 0.0 0.00 0.00 0.00 91 1010.8
20260504032011 12 146 0.0 0.0 0.00 0.00 0.00 91 1011.2
20260504031509 11 146 0.0 0.0 0.00 0.00 0.00 91 1011.2
20260504031010 11 141 0.0 0.0 0.00 0.00 0.00 91 1011.2
20260504030509 11 140 0.0 1.6 0.00 0.00 0.00 91 1011.2
20260504030009 11 95 1.6 1.6 0.00 0.00 0.00 91 1011.2
20260504025510 11 142 0.0 1.6 0.00 0.00 0.00 91 1011.2
20260504025009 11 98 3.2 4.8 0.00 0.00 0.00 91 1011.2
20260504024509 11 123 1.6 3.2 0.00 0.00 0.00 91 1011.5
20260504024009 11 110 1.6 1.6 0.00 0.00 0.00 91 1011.2
20260504023510 11 130 0.0 0.0 0.00 0.00 0.00 91 1011.2
20260504023010 11 133 0.0 0.0 0.00 0.00 0.00 90 1011.5
20260504022510 11 143 0.0 0.0 0.00 0.00 0.00 90 1011.2
20260504022010 11 137 0.0 0.0 0.00 0.00 0.00 90 1011.2
20260504021509 11 134 0.0 0.0 0.00 0.00 0.00 89 1011.2
20260504021009 11 153 0.0 8.0 0.00 0.00 0.00 90 1011.2
20260504020510 11 207 1.6 3.2 0.00 0.00 0.00 90 1011.2
20260504020010 11 159 0.0 1.6 0.00 0.00 0.00 90 1011.2
20260504015510 11 164 0.0 1.6 0.00 0.00 0.00 90 1011.2
20260504015010 11 166 0.0 1.6 0.00 0.00 0.00 90 1011.2
20260504014509 11 168 1.6 1.6 0.00 0.00 0.00 90 1011.2
20260504014010 10 154 0.0 0.0 0.00 0.00 0.00 90 1011.2
20260504013510 10 138 0.0 0.0 0.00 0.00 0.00 89 1011.2
20260504013010 10 138 0.0 0.0 0.00 0.00 0.00 89 1011.2
20260504012509 10 140 0.0 0.0 0.00 0.00 0.00 89 1011.2
20260504012010 10 142 0.0 0.0 0.00 0.00 0.00 88 1011.5
20260504011509 10 139 0.0 0.0 0.00 0.00 0.00 88 1011.5
20260504011010 10 142 0.0 0.0 0.00 0.00 0.00 87 1011.5
20260504010510 10 162 0.0 1.6 0.00 0.00 0.00 88 1011.9
20260504010009 10 243 1.6 3.2 0.00 0.00 0.00 89 1011.9
20260504005516 10 142 0.0 0.0 0.00 0.00 0.00 89 1011.9
20260504005010 10 140 0.0 0.0 0.00 0.00 0.00 89 1011.9
20260504004511 10 135 1.6 1.6 0.00 0.00 0.00 89 1011.9
20260504004009 10 136 0.0 0.0 0.00 0.00 0.00 89 1012.2
20260504003510 10 136 0.0 0.0 0.00 0.00 0.00 89 1011.9
20260504003009 10 134 0.0 0.0 0.00 0.00 0.00 88 1012.2
20260504002510 10 135 0.0 0.0 0.00 0.00 0.00 88 1011.9
20260504002009 10 135 0.0 0.0 0.00 0.00 0.00 88 1011.9
20260504001510 10 132 0.0 0.0 0.00 0.00 0.00 88 1012.2
20260504001009 10 132 0.0 0.0 0.00 0.00 0.00 87 1012.2
20260504000510 10 139 0.0 0.0 0.00 0.00 0.00 87 1011.9
20260504000009 10 141 0.0 0.0 0.00 0.00 0.00 86 1012.2
20260503235509 10 148 0.0 0.0 0.00 0.00 0.00 86 1012.5
20260503235009 10 135 0.0 0.0 0.00 0.00 0.00 86 1012.2
20260503234510 10 131 0.0 0.0 0.00 0.00 0.00 85 1012.2
20260503234009 10 140 0.0 1.6 0.00 0.00 0.00 84 1012.2
20260503233510 11 183 1.6 1.6 0.00 0.00 0.00 84 1011.9
20260503233010 10 173 1.6 1.6 0.00 0.00 0.00 84 1012.2
20260503232509 11 146 0.0 0.0 0.00 0.00 0.00 83 1011.9
20260503232010 11 139 0.0 1.6 0.00 0.00 0.00 82 1011.9
20260503231509 11 166 0.0 3.2 0.00 0.00 0.00 81 1012.2
20260503231011 11 168 0.0 1.6 0.00 0.00 0.00 83 1011.9
20260503230510 11 154 0.0 1.6 0.00 0.00 0.00 83 1011.9
20260503230009 11 137 0.0 1.6 0.00 0.00 0.00 83 1012.2
20260503225510 11 128 0.0 1.6 0.00 0.00 0.00 83 1012.2
20260503225009 12 132 0.0 0.0 0.00 0.00 0.00 82 1012.2
20260503224512 12 143 0.0 1.6 0.00 0.00 0.00 82 1012.5
20260503224009 12 137 0.0 1.6 0.00 0.00 0.00 82 1012.2
20260503223510 12 150 0.0 0.0 0.00 0.00 0.00 82 1012.2
20260503223009 12 151 0.0 0.0 0.00 0.00 0.00 82 1011.9
20260503222509 11 150 1.6 1.6 0.00 0.00 0.00 82 1012.2
20260503222009 12 140 0.0 0.0 0.00 0.00 0.00 83 1011.9
20260503221510 12 141 0.0 0.0 0.00 0.00 0.00 83 1011.9
20260503221009 12 125 0.0 1.6 0.00 0.00 0.00 82 1011.9
20260503220509 12 139 0.0 0.0 0.00 0.00 0.00 81 1011.9
20260503220009 12 145 0.0 0.0 0.00 0.00 0.00 80 1011.9
20260503215510 12 145 0.0 0.0 0.00 0.00 0.00 81 1011.9
20260503215009 12 139 0.0 0.0 0.00 0.00 0.00 82 1011.9
20260503214510 12 155 0.0 1.6 0.00 0.00 0.00 82 1011.9
20260503214010 12 135 0.0 0.0 0.00 0.00 0.00 82 1011.9
20260503213510 13 148 0.0 0.0 0.00 0.00 0.00 82 1011.5
20260503213012 13 147 0.0 1.6 0.00 0.00 0.00 80 1011.2
20260503212510 13 154 0.0 1.6 0.00 0.00 0.00 79 1011.5
20260503212009 13 137 0.0 1.6 0.00 0.00 0.00 78 1011.5
20260503211509 13 164 0.0 1.6 0.00 0.00 0.00 78 1011.5
20260503211010 13 184 1.6 1.6 0.00 0.00 0.00 79 1011.5
20260503210510 13 161 0.0 1.6 0.00 0.00 0.00 79 1011.5
20260503210010 13 162 1.6 1.6 0.00 0.00 0.00 79 1011.2
20260503205510 13 128 0.0 1.6 0.00 0.00 0.00 78 1011.5
20260503205009 12 104 4.8 8.0 0.00 0.00 0.00 79 1011.5
20260503204510 12 170 1.6 3.2 0.00 0.00 0.00 84 1011.9
20260503204009 13 147 0.0 1.6 0.00 0.00 0.00 85 1011.9
20260503203510 12 154 1.6 1.6 0.00 0.00 0.00 84 1012.2
20260503203011 13 116 1.6 1.6 0.00 0.00 0.00 86 1011.5
20260503202510 13 154 0.0 1.6 0.00 0.00 0.00 86 1011.9
20260503202009 13 149 0.0 0.0 0.00 0.00 0.00 86 1011.9
20260503201509 13 143 0.0 0.0 0.00 0.00 0.00 85 1011.9
20260503201009 13 154 0.0 0.0 0.00 0.00 0.00 85 1011.9
20260503200510 13 148 0.0 0.0 0.00 0.00 0.00 84 1011.9
20260503200009 13 147 0.0 1.6 0.00 0.00 0.00 84 1011.9
20260503195509 13 171 1.6 1.6 0.00 0.00 0.00 85 1011.9
20260503195010 13 138 0.0 1.6 0.00 0.00 0.00 85 1012.2
20260503194509 13 174 1.6 3.2 0.00 0.00 0.00 86 1011.9
20260503194010 13 155 0.0 1.6 0.00 0.00 0.00 87 1011.9
20260503193509 13 148 0.0 0.0 0.00 0.00 0.00 87 1011.9
20260503193009 13 163 1.6 3.2 0.00 0.00 0.00 87 1011.9
20260503192511 13 131 1.6 3.2 0.00 0.00 0.00 87 1011.9
20260503192009 13 123 3.2 3.2 0.00 0.00 0.00 88 1011.2
20260503191511 13 152 1.6 1.6 0.00 0.00 0.00 87 1011.5
20260503191010 13 153 1.6 3.2 0.00 0.00 0.00 87 1011.5
20260503190510 13 149 3.2 9.7 0.00 0.00 0.00 87 1011.5
20260503190010 13 188 1.6 3.2 0.00 0.00 0.00 86 1011.5
20260503185510 13 186 4.8 4.8 0.00 0.00 0.00 86 1011.2
20260503185009 13 134 1.6 4.8 0.00 0.00 0.00 86 1011.5
20260503184509 13 162 4.8 4.8 0.00 0.00 0.00 85 1011.2
20260503184009 13 164 1.6 9.7 0.00 0.00 0.00 86 1011.5
20260503183511 13 132 0.0 4.8 0.00 0.00 0.00 87 1011.2
20260503183011 13 154 1.6 3.2 0.00 0.00 0.00 86 1011.2
20260503182509 13 227 3.2 8.0 0.00 0.00 0.00 86 1011.2
20260503182011 13 119 1.6 9.7 0.00 0.00 0.00 86 1011.2
20260503181511 13 177 3.2 8.0 0.00 0.00 0.00 86 1011.2
20260503181011 14 179 6.4 9.7 0.00 0.00 0.00 86 1011.2
20260503180509 13 170 3.2 8.0 0.00 0.00 0.00 86 1011.2
20260503180009 14 184 4.8 8.0 0.00 0.00 0.00 87 1011.2
20260503175510 14 148 1.6 4.8 0.00 0.00 0.00 86 1011.2
20260503175010 14 163 1.6 3.2 0.00 0.00 0.00 86 1011.2
20260503174510 14 161 3.2 8.0 0.00 0.00 0.00 86 1011.2
20260503174009 14 169 4.8 4.8 0.00 0.00 0.00 86 1011.2
20260503173510 14 159 1.6 3.2 0.00 0.00 0.00 87 1011.2
20260503173009 14 221 3.2 4.8 0.00 0.00 0.00 87 1010.8
20260503172509 14 144 3.2 4.8 0.00 0.00 0.00 86 1011.2
20260503172012 14 156 1.6 4.8 0.00 0.00 0.00 85 1011.2
20260503171511 15 182 3.2 8.0 0.00 0.00 0.00 85 1010.8
20260503171012 14 218 4.8 4.8 0.00 0.00 0.00 85 1010.8
20260503170510 15 153 3.2 8.0 0.00 0.00 0.00 84 1011.2
20260503151011 16 110 1.6 3.2 0.00 0.00 0.00 73 1010.2
20260503150509 16 145 3.2 4.8 0.00 0.00 0.00 72 1010.5
20260503131036 15 179 1.6 3.2 0.00 0.00 0.00 78 1011.5
20260503130512 15 137 3.2 8.0 0.00 0.00 0.00 79 1011.9
20260503110713 15 183 8.0 11.3 0.00 0.00 0.00 85 1013.5
20260503110214 15 138 3.2 8.0 0.00 0.00 0.00 85 1013.5
20260503100212 15 149 0.0 8.0 0.00 0.00 0.00 75 1013.5